Simultaneous Nadir Overpasses (SNOs) Predictions

Prediction of SNOs between TERRA and METOP-C Satellite Orbit:

Table of predicted SNOs for the next 14.0 days since TLE Epoch: 1/7/2023
Index Date (TERRA) Time (TERRA) Lat,Lon (TERRA) SZA (TERRA ) Date (METOP-C) Time (METOP-C) Lat,Lon (METOP-C) SZA (METOP-C ) Distance(km) Time Diff (sec)
1 01/08/2023 01:51:51 80.95,-172.12 104.69 01/08/2023 01:51:09 80.95,-172.19 104.67 1.31 42
2 01/08/2023 02:41:12 -80.99, -3.92 75.24 01/08/2023 02:41:46 -80.99, -3.85 75.22 1.17 34
3 01/10/2023 18:03:26 80.96, -54.90 104.31 01/10/2023 18:02:46 80.96, -54.75 104.31 2.63 40
4 01/10/2023 18:52:48 -80.97, 112.95 75.67 01/10/2023 18:53:25 -80.98, 112.89 75.66 1.08 37
5 01/13/2023 10:15:01 80.96, 62.14 103.85 01/13/2023 10:14:24 80.96, 62.25 103.85 2.02 37
6 01/13/2023 11:04:23 -80.97,-129.99 76.13 01/13/2023 11:05:03 -80.97,-130.05 76.12 1.10 40
7 01/16/2023 02:26:36 80.94, 179.01 103.32 01/16/2023 02:26:03 80.93, 178.83 103.29 3.11 33
8 01/16/2023 03:15:57 -80.98, -12.76 76.61 01/16/2023 03:16:40 -80.99, -12.69 76.59 1.15 43
9 01/18/2023 18:38:09 80.94, -63.95 102.77 01/18/2023 18:37:39 80.94, -63.93 102.76 0.69 30



Historial Predications of SNOs between TERRA and METOP-C
